Flag for U.S.A. Weather past 2 weeks in Sheboygan, Wisconsin, U.S.A.

Now
49 °F

Fog.


Feels Like: 47 °F
Forecast: 48 / 59 °F
Wind: 5 mph from West

Location: Sheboygan County Memorial Airport

Current Time: Oct 24, 2014 at 4:47:01 AM

Latest Report: Oct 24, 2014 at 3:53 AM


Visibility: 3 mi

Pressure: 30.03 "Hg

Humidity: 97%

Dew point: 48 °F

Location of SheboyganLocation

Historic Weather in Sheboygan — Graph

°F

Sheboygan temperature yesterday

Maximum temperature yesterday: 56 °F (at 11:53 AM)
Minimum temperature yesterday: 29 °F (at 1:53 AM)
Average temperature yesterday: 43 °F

Past Weeks' High & Low Weather Summary

 TemperatureHumidityPressure
High62 °F (Oct 14, 12:53 AM)100% (Oct 13, 7:53 AM)30.40 "Hg (Oct 13, 7:53 AM)
Low28 °F (Oct 22, 4:53 AM)48% (Oct 18, 4:53 PM)29.48 "Hg (Oct 17, 4:53 AM)
Average48 °F84%29.93 "Hg
* Reported Oct 9 3:53 AM — Oct 24 3:53 AM, Sheboygan, Weather by CustomWeather, © 2014

Note: Actual official high and low records may vary slightly from our data, if they occured in-between our weather recording intervals... More about our weather records

Advertising

Sheboygan weather history for previous 24 hours

 ConditionsComfort  
Time TempWeatherWind HumidityBarometerVisibility
3:53 AM
Oct 24
49 °FFog.5 mph97%30.03 "Hg3 mi
3:04 AM50 °FFog.5 mph93%30.03 "Hg2 mi
2:53 AM50 °FFog.5 mph96%30.03 "Hg1 mi
1:53 AM50 °FFog.3 mph93%30.03 "Hg4 mi
12:53 AM50 °FFog.N/A93%30.03 "Hg5 mi
11:53 PM
Oct 23
50 °FFog.5 mph93%30.02 "Hg4 mi
10:53 PM50 °FFog.N/A93%30.04 "Hg4 mi
9:53 PM50 °FFog.5 mph93%30.06 "Hg6 mi
8:53 PM50 °FFog.5 mph93%30.06 "Hg4 mi
7:53 PM50 °FFog.No wind93%30.08 "Hg3 mi
6:53 PM49 °FRain. Fog.8 mph93%30.07 "Hg2 mi
5:53 PM49 °FLight rain. Fog.5 mph93%30.08 "Hg5 mi
4:53 PM50 °FLight rain. Fog.7 mph89%30.09 "Hg4 mi
3:53 PM51 °FLight rain. Overcast.12 mph83%30.10 "Hg7 mi
2:53 PM52 °FPartly sunny.9 mph72%30.08 "Hg10 mi
1:53 PM53 °FSunny.9 mph66%30.11 "Hg10 mi
12:53 PM55 °FSunny.10 mph57%30.12 "Hg10 mi
11:53 AM56 °FSunny.10 mph58%30.15 "Hg10 mi
10:53 AM51 °FSunny.8 mph66%30.17 "Hg10 mi
9:53 AM46 °FSunny.7 mph77%30.18 "Hg10 mi
8:53 AM41 °FFog.5 mph93%30.20 "Hg6 mi
7:53 AM36 °FFog.3 mph97%30.21 "Hg3 mi
6:53 AM30 °FIce fog.5 mph92%30.22 "Hg6 mi
5:53 AM31 °FIce fog.No wind89%30.22 "Hg6 mi
4:53 AM29 °FIce fog.No wind96%30.22 "Hg6 mi
Weather by CustomWeather, © 2014

See weather overviewHow to use our weather pages